{"data":{"norad_id":62912,"intl_designator":"2025-027F","name":"STARLINK-11565 [DTC]","alt_names":[],"object_type":"PAYLOAD","status":"ACTIVE","operator":null,"country":"US","launch_date":"2025-02-08","launch_site_code":"AFETR","launch_vehicle":null,"mission":null,"orbit_class":"UNKNOWN","rcs_meters":null,"size_class":null,"mass_kg":null,"dimensions":null,"purposes":["comms"],"wikipedia_slug":null,"has_3d_model":false,"image_url":null,"decayed_at":null,"tle_current":{"epoch":"2026-09-21T10:37:27.495840Z","epoch_age_seconds":86836,"freshness":"FRESH","line1":"1 62912U 25027F   26264.44267935  .00123715  00000+0  95209-3 0  9992","line2":"2 62912  42.9966 247.3174 0001153 274.3446  85.7290 15.70871559 93940","mean_motion":15.70871559,"eccentricity":0.0001153,"inclination_deg":42.9966,"raan_deg":247.3174,"arg_perigee_deg":274.3446,"mean_anomaly_deg":85.729,"bstar":0.00095209,"rev_number":9394,"period_min":91.668856804352,"perigee_km":355.6283688737,"apogee_km":357.18135422697,"semimajor_km":6734.5418615503,"source":"CELESTRAK","updated_at":"2026-09-22T09:00:49.707466Z"}}}